Dubrovnik, Croatia

6:32 AM CET on December 13, 2017 (GMT +0100)
Cilipi

Weather History for LDDU - December, 2017

Change the Weather History Date:

Thursday, December 7, 2017

  Actual Average (LYTV) Record (LYTV)
Temperature  
Mean Temperature 45 °F -  
Max Temperature 55 °F 56 °F 64 °F (2004)
Min Temperature 35 °F 39 °F 28 °F (1999)
Degree Days  
Heating Degree Days 20    
Moisture  
Dew Point 33 °F    
Average Humidity 63    
Maximum Humidity 100    
Minimum Humidity 35    
Precipitation  
Precipitation 0.63 in - - ()
Sea Level Pressure  
Sea Level Pressure 30.41 in    
Wind  
Wind Speed 6 mph ()    
Max Wind Speed 13 mph    
Max Gust Speed -    
Visibility 16.2 miles    
Events Rain , Thunderstorm    
Averages and records for this station are not official NWS values.
T = Trace of Precipitation, MM = Missing Value Source: Averaged Metar Reports

Daily Weather History Graph

Daily Weather History Graph

Search for Another Location

Airport or City:

Trip Planner

Search our weather history database for the weather conditions in past years. The results will help you decide how hot, cold, wet, or windy it might be!

Date:

Astronomy

Dec. 07, 2017 Rise Set
Actual Time 7:03 AM CET 4:13 PM CET
Civil Twilight 6:31 AM CET 4:45 PM CET
Nautical Twilight 5:55 AM CET 5:20 PM CET
Astronomical Twilight 5:21 AM CET 5:54 PM CET
Moon 8:42 PM CET (12/7) 10:26 AM CET (12/7)
Length of Visible Light 10h 14m
Length of Day
9h 10m
Waning Gibbous, 80% of the Moon is Illuminated
Dec 7
Waning Gibbous
Dec 10
Last Quarter
Dec 18
New
Dec 26
First Quarter
Jan 2
Full

Hourly Weather History & Observations

Time (CET) Temp. Windchill Dew Point Humidity Pressure Visibility Wind Dir Wind Speed Gust Speed Precip Events Conditions
12:00 AM 39.2 °F 34.2 °F 30.2 °F 70% 30.45 in - ENE 6.9 mph - N/A   Clear
1:00 AM 36 °F - 28 °F 63% 30.48 in 19 mi ENE 6.7 mph - -  
1:00 AM 35.6 °F 29.9 °F 28.4 °F 75% 30.45 in - ENE 6.9 mph - N/A   Clear
1:30 AM 37.4 °F 32.8 °F 28.4 °F 70% 30.45 in - ENE 5.8 mph - N/A   Clear
2:00 AM 39.2 °F 34.2 °F 30.2 °F 70% 30.45 in - East 6.9 mph - N/A   Clear
2:30 AM 37.4 °F 33.8 °F 30.2 °F 75% 30.45 in - East 4.6 mph - N/A   Clear
3:00 AM 37.4 °F 32.8 °F 30.2 °F 75% 30.45 in - East 5.8 mph - N/A   Clear
3:30 AM 37.4 °F 34.9 °F 30.2 °F 75% 30.42 in - East 3.5 mph - N/A   Clear
4:00 AM 38 °F - 30 °F 62% 30.46 in 19 mi ENE 4.5 mph - -  
4:00 AM 37.4 °F 33.8 °F 28.4 °F 70% 30.42 in - ENE 4.6 mph - N/A   Clear
4:30 AM 37.4 °F 32.8 °F 30.2 °F 75% 30.42 in - ENE 5.8 mph - N/A   Clear
5:00 AM 37.4 °F 33.8 °F 30.2 °F 75% 30.42 in - ENE 4.6 mph - N/A   Clear
5:30 AM 37.4 °F 33.8 °F 30.2 °F 75% 30.42 in - ENE 4.6 mph - N/A   Clear
6:00 AM 37.4 °F 32.1 °F 28.4 °F 70% 30.45 in - ENE 6.9 mph - N/A   Clear
6:30 AM 37.4 °F 32.8 °F 28.4 °F 70% 30.42 in - ENE 5.8 mph - N/A   Clear
7:00 AM 37.4 °F 32.8 °F 28.4 °F 70% 30.42 in - ENE 5.8 mph - N/A   Clear
7:30 AM 42.8 °F 39.3 °F 28.4 °F 57% 30.45 in - NE 5.8 mph - N/A   Clear
8:00 AM 44.6 °F 41.4 °F 28.4 °F 53% 30.45 in - NE 5.8 mph - N/A   Clear
8:30 AM 46.4 °F 43.5 °F 30.2 °F 53% 30.45 in - NE 5.8 mph - N/A   Clear
9:00 AM 48.2 °F - 30.2 °F 50% 30.45 in - ENE 4.6 mph - N/A   Clear
9:30 AM 50.0 °F - 32.0 °F 50% 30.45 in - ENE 4.6 mph - N/A   Clear
10:00 AM 55 °F - 36 °F 37% 30.47 in 25 mi Calm Calm - -  
10:00 AM 53.6 °F - 33.8 °F 47% 30.45 in - Variable 1.2 mph - N/A   Clear
10:30 AM 53.6 °F - 33.8 °F 47% 30.45 in - WNW 5.8 mph - N/A   Clear
11:00 AM 53.6 °F - 32.0 °F 44% 30.45 in - WNW 5.8 mph - N/A   Clear
11:30 AM 53.6 °F - 33.8 °F 47% 30.42 in - West 10.4 mph - N/A   Clear
12:00 PM 53.6 °F - 33.8 °F 47% 30.42 in - WNW 10.4 mph - N/A   Clear
12:30 PM 53.6 °F - 33.8 °F 47% 30.42 in - WNW 9.2 mph - N/A   Clear
1:00 PM 54 °F - 34 °F 35% 30.43 in 28 mi West 8.9 mph - -  
1:00 PM 53.6 °F - 33.8 °F 47% 30.42 in - West 8.1 mph - N/A   Clear
1:30 PM 53.6 °F - 35.6 °F 51% 30.42 in - West 9.2 mph - N/A   Clear
2:00 PM 53.6 °F - 35.6 °F 51% 30.39 in - WNW 9.2 mph - N/A   Clear
2:30 PM 53.6 °F - 35.6 °F 51% 30.39 in - WNW 10.4 mph - N/A   Clear
3:00 PM 53.6 °F - 35.6 °F 51% 30.39 in - WNW 10.4 mph - N/A   Clear
3:30 PM 51.8 °F - 37.4 °F 58% 30.39 in - WNW 8.1 mph - N/A   Clear
4:00 PM 50 °F - 38 °F 54% 30.41 in 19 mi WNW 8.9 mph - -  
4:00 PM 50.0 °F - 39.2 °F 66% 30.39 in - WNW 9.2 mph - N/A   Clear
4:30 PM 48.2 °F - 37.4 °F 66% 30.39 in - WNW 8.1 mph - N/A   Clear
5:00 PM 50.0 °F - 39.2 °F 66% 30.39 in - WNW 8.1 mph - N/A   Clear
5:30 PM 48.2 °F - 37.4 °F 66% 30.39 in - NW 5.8 mph - N/A   Clear
6:00 PM 44.6 °F 43.1 °F 35.6 °F 71% 30.39 in - East 3.5 mph - N/A   Clear
6:30 PM 42.8 °F 40.1 °F 35.6 °F 76% 30.39 in - East 4.6 mph - N/A   Clear
7:00 PM 43 °F - 36 °F 67% 30.42 in 19 mi East 4.5 mph - -  
7:00 PM 42.8 °F 40.1 °F 35.6 °F 76% 30.39 in - East 4.6 mph - N/A   Clear
7:30 PM 42.8 °F 38.6 °F 35.6 °F 76% 30.39 in - East 6.9 mph - N/A   Clear
8:00 PM 41.0 °F 38.0 °F 33.8 °F 76% 30.39 in - ENE 4.6 mph - N/A   Clear
8:30 PM 41.0 °F 37.1 °F 35.6 °F 81% 30.39 in - ENE 5.8 mph - N/A   Clear
9:00 PM 44.6 °F - 33.8 °F 66% 30.39 in - Variable 2.3 mph - N/A   Clear
9:30 PM 44.6 °F 42.2 °F 33.8 °F 66% 30.39 in - East 4.6 mph - N/A   Clear
10:00 PM 54 °F - 54 °F 100% 29.94 in 5 mi East 13.4 mph - - Rain , Thunderstorm Thunderstorms and Rain
10:00 PM 44.6 °F 43.1 °F 33.8 °F 66% 30.39 in - East 3.5 mph - N/A   Clear
10:30 PM 44.6 °F 43.1 °F 33.8 °F 66% 30.39 in - NE 3.5 mph - N/A   Clear
11:00 PM 46.4 °F 42.9 °F 33.8 °F 62% 30.39 in - NNE 6.9 mph - N/A   Clear
11:30 PM 48.2 °F - 33.8 °F 58% 30.36 in - NNE 8.1 mph - N/A   Clear